Weather History for Orangeburg, SC

Change the Weather History Date:

Saturday, October 6, 2012

  Actual Average Record
Temperature  
Mean Temperature 75 °F 69 °F  
Max Temperature 87 °F 80 °F 99 °F (1954)
Min Temperature 63 °F 58 °F 39 °F (1974)
Degree Days  
Heating Degree Days 0 1  
Month to date heating degree days 0 6  
Since 1 July heating degree days 0 10  
Cooling Degree Days 10 5  
Month to date cooling degree days 69 33  
Year to date cooling degree days 2278 2027  
Growing Degree Days 24 (Base 50)    
Moisture  
Dew Point 63 °F    
Average Humidity 82    
Maximum Humidity 100    
Minimum Humidity 36    
Precipitation  
Precipitation 0.00 in 0.14 in 1.39 in (2005)
Month to date precipitation 0.65 0.88  
Year to date precipitation 35.68 37.98  
Sea Level Pressure  
Sea Level Pressure 29.98 in    
Wind  
Wind Speed 2 mph (West)    
Max Wind Speed 15 mph    
Max Gust Speed 16 mph    
Visibility 5 miles    
Events Fog    
T = Trace of Precipitation, MM = Missing Value Source: NWS Daily Summary

Daily Weather History Graph

Daily Weather History Graph

Search for Another Location

Airport:

Trip Planner

Search our weather history database for the weather conditions in past years. The results will help you decide how hot, cold, wet, or windy it might be!

Date:

Astronomy

Oct. 06, 2012 Rise Set
Actual Time 7:21 AM EDT 7:00 PM EDT
Civil Twilight 6:56 AM EDT 7:25 PM EDT
Nautical Twilight 6:28 AM EDT 7:54 PM EDT
Astronomical Twilight 5:59 AM EDT 8:22 PM EDT
Moon 11:27 PM EDT (10/6) 1:01 PM EDT (10/6)
Length of Visible Light 12h 28m
Length of Day
11h 38m
Waning Gibbous, 65% of the Moon is Illuminated
Oct 6
Waning Gibbous
Oct 8
Last Quarter
Oct 15
New
Oct 21
First Quarter
Oct 29
Full

Hourly Weather History & Observations

Time (EDT) Temp. Heat Index Dew Point Humidity Pressure Visibility Wind Dir Wind Speed Gust Speed Precip Events Conditions
12:53 AM 66.9 °F - 64.9 °F 93% 30.03 in 3.0 mi Calm Calm - N/A   Clear
1:15 AM 66.2 °F - 64.4 °F 94% 30.03 in 1.5 mi Calm Calm - N/A   Clear
1:29 AM 66.2 °F - 64.4 °F 94% 30.03 in 2.0 mi Calm Calm - N/A   Clear
1:37 AM 66.2 °F - 64.4 °F 94% 30.03 in 3.0 mi Calm Calm - N/A   Clear
1:53 AM 66.0 °F - 64.0 °F 93% 30.03 in 6.0 mi Calm Calm - N/A   Clear
2:53 AM 66.0 °F - 64.0 °F 93% 30.01 in 4.0 mi Calm Calm - N/A   Mostly Cloudy
3:53 AM 64.9 °F - 63.0 °F 93% 30.01 in 6.0 mi Calm Calm - N/A   Scattered Clouds
4:42 AM 64.4 °F - 62.6 °F 94% 29.99 in 2.5 mi Calm Calm - N/A   Partly Cloudy
4:51 AM 64.4 °F - 62.6 °F 94% 29.99 in 1.8 mi Calm Calm - N/A   Mostly Cloudy
4:53 AM 64.9 °F - 63.0 °F 93% 29.99 in 1.2 mi Calm Calm - N/A   Mostly Cloudy
5:04 AM 64.4 °F - 62.6 °F 94% 29.99 in 0.5 mi Calm Calm - N/A Fog Fog
5:26 AM 64.4 °F - 62.6 °F 94% 29.99 in 1.0 mi Calm Calm - N/A   Mist
5:28 AM 62.6 °F - 62.6 °F 100% 29.99 in 2.0 mi Calm Calm - N/A   Partly Cloudy
5:37 AM 64.4 °F - 62.6 °F 94% 29.99 in 5.0 mi Calm Calm - N/A   Scattered Clouds
5:53 AM 64.0 °F - 62.1 °F 93% 29.98 in 4.0 mi Calm Calm - N/A   Partly Cloudy
6:43 AM 64.4 °F - 62.6 °F 94% 29.99 in 2.0 mi Calm Calm - N/A   Clear
6:53 AM 64.0 °F - 62.1 °F 93% 29.99 in 2.0 mi Calm Calm - N/A   Clear
6:56 AM 64.4 °F - 62.6 °F 94% 30.00 in 1.5 mi Calm Calm - N/A   Clear
7:10 AM 62.6 °F - 62.6 °F 100% 30.00 in 2.0 mi Calm Calm - N/A   Clear
7:20 AM 62.6 °F - 60.8 °F 94% 30.00 in 3.0 mi Calm Calm - N/A   Clear
7:25 AM 62.6 °F - 60.8 °F 94% 30.00 in 1.8 mi Calm Calm - N/A   Clear
7:32 AM 62.6 °F - 60.8 °F 94% 30.00 in 1.0 mi Calm Calm - N/A   Clear
7:46 AM 62.6 °F - 60.8 °F 94% 30.00 in 2.0 mi Calm Calm - N/A   Clear
7:53 AM 63.0 °F - 62.1 °F 97% 30.00 in 2.0 mi Calm Calm - N/A   Clear
8:08 AM 64.4 °F - 62.6 °F 94% 30.00 in 3.0 mi Calm Calm - N/A   Clear
8:53 AM 69.1 °F - 64.9 °F 87% 30.01 in 5.0 mi Calm Calm - N/A   Clear
9:53 AM 73.9 °F - 66.9 °F 79% 30.02 in 10.0 mi NW 3.5 mph - N/A   Clear
10:53 AM 78.1 °F - 66.0 °F 66% 30.01 in 10.0 mi WNW 8.1 mph - N/A   Clear
11:53 AM 81.0 °F 82.5 °F 64.0 °F 56% 29.99 in 10.0 mi Calm Calm - N/A   Clear
12:53 PM 84.0 °F 84.0 °F 60.1 °F 44% 29.96 in 10.0 mi NW 6.9 mph - N/A   Clear
1:53 PM 84.9 °F 84.2 °F 57.9 °F 40% 29.93 in 10.0 mi WSW 10.4 mph 16.1 mph N/A   Clear
2:53 PM 86.0 °F 85.4 °F 59.0 °F 40% 29.90 in 10.0 mi Variable 3.5 mph - N/A   Clear
3:53 PM 87.1 °F 85.9 °F 57.0 °F 36% 29.89 in 10.0 mi SSW 6.9 mph - N/A   Clear
4:53 PM 87.1 °F 86.1 °F 57.9 °F 37% 29.88 in 10.0 mi West 6.9 mph - N/A   Clear
5:53 PM 84.9 °F 84.2 °F 57.9 °F 40% 29.88 in 10.0 mi WSW 3.5 mph - N/A   Clear
6:53 PM 78.1 °F - 64.0 °F 62% 29.91 in 10.0 mi Calm Calm - N/A   Clear
7:53 PM 73.0 °F - 64.9 °F 76% 29.92 in 9.0 mi Calm Calm - N/A   Clear
8:53 PM 71.1 °F - 64.9 °F 81% 29.94 in 10.0 mi Calm Calm - N/A   Clear
9:53 PM 71.1 °F - 64.9 °F 81% 29.95 in 10.0 mi Calm Calm - N/A   Clear
10:53 PM 71.1 °F - 66.9 °F 87% 29.96 in 10.0 mi SSW 3.5 mph - N/A   Clear
11:53 PM 70.0 °F - 66.9 °F 90% 29.95 in 7.0 mi Calm Calm - N/A   Clear